RH
94 98 96 94 90 92 95 87 86 92 89 82 80 81 81 76 75 70 63 53 44 40 34 27 18 10 6 6 7 11 16 21 23 31 39 42 51 58 61 64 63 68 67 40
95 98 100 100 97 99 96 92 92 92 93 92 92 88 87 86 76 70 59 49 43 35 26 16 10 5 6 9 16 28 38 42 48 44 48 59 72 69 83 99 95 70 80 50
96 95 96 98 97 96 97 95 92 89 86 96 96 92 89 87 73 65 54 46 36 25 16 7 4 5 12 19 27 42 54 56 59 59 68 87 79 70 81 95 93 96 70 57
97 95 94 96 98 99 99 98 91 91 94 95 90 91 92 82 72 60 48 36 21 12 5 5 9 18 23 35 53 63 69 76 83 88 98 100 89 100 100 100 100 100 82 66
96 94 94 96 97 98 98 98 98 89 95 100 100 97 86 78 65 50 35 23 10 4 6 11 7 25 41 62 58 73 81 95 100 100 100 100 100 98 100 100 100 92 89 70
98 96 98 96 98 99 99 100 98 98 95 100 97 89 83 66 50 35 18 7 4 5 11 21 31 39 43 55 63 71 87 100 100 100 100 100 100 79 100 100 99 95 92 94
98 98 98 98 98 100 100 100 99 100 98 99 93 85 67 50 30 17 6 5 6 10 16 21 22 24 29 37 46 88 97 100 100 100 100 100 88 93 100 100 100 87 81 98
98 98 98 100 100 99 100 100 100 100 97 89 84 68 51 32 12 5 4 5 11 15 18 18 18 16 20 24 33 66 82 100 100 100 100 97 77 100 100 100 84 78 96 100
100 100 100 100 100 99 100 100 100 98 91 80 70 47 27 12 4 3 5 8 10 12 12 16 20 23 23 28 29 34 56 63 85 100 88 98 100 94 100 74 67 84 100 100
100 99 100 100 100 99 100 100 97 96 88 67 44 24 11 4 3 4 5 6 9 12 15 18 22 26 30 30 42 54 63 100 100 100 100 89 79 100 90 70 74 72 64 79
99 100 100 100 100 100 100 98 97 85 58 38 17 6 3 4 4 5 8 11 13 16 20 24 28 32 46 52 70 68 88 100 100 100 99 100 99 100 88 94 95 86 75 81
100 100 100 100 100 100 99 96 75 43 21 13 4 3 4 4 7 9 14 15 18 20 24 35 45 57 66 83 87 100 98 98 94 81 92 100 97 86 99 100 92 78 70 80
100 100 100 99 99 97 88 48 30 10 5 3 3 4 5 7 11 13 15 20 21 24 29 43 75 94 100 100 100 99 99 91 100 100 100 100 100 100 95 88 85 82 98 100
100 99 99 98 94 66 26 12 5 3 3 3 4 6 8 10 11 13 16 20 23 29 40 63 90 100 100 100 100 100 100 100 100 100 100 100 96 86 77 73 92 100 100 100
100 97 94 86 39 12 5 3 3 3 4 5 7 8 9 9 11 14 18 20 30 41 63 90 100 100 99 99 96 92 100 100 98 98 99 89 77 69 76 100 100 100 100 95
97 90 55 14 5 4 3 3 4 4 6 7 7 9 10 12 16 18 20 24 37 62 90 100 100 100 100 100 100 100 100 100 100 98 89 80 78 94 94 100 100 95 96 100
42 16 7 4 3 3 3 4 6 8 8 9 10 12 13 16 19 23 25 31 47 76 93 100 100 100 100 100 100 100 100 100 100 99 97 97 98 100 98 100 100 98 100 100
6 4 3 3 3 4 6 7 9 10 11 12 13 14 16 21 24 27 31 43 57 79 87 98 100 100 100 100 100 100 100 100 100 97 93 86 81 89 99 100 98 98 96 99
3 3 3 4 6 7 8 10 11 12 14 15 16 18 24 27 28 31 37 44 57 70 88 100 100 100 100 100 100 100 100 98 100 100 98 94 94 95 98 98 91 90 92 88
3 4 6 6 8 10 10 12 14 16 16 18 21 27 29 30 33 35 38 48 58 70 84 95 99 99 100 100 100 100 100 100 100 100 97 97 98 99 99 97 95 92 92 89
5 6 8 9 11 13 14 16 17 18 19 23 30 32 33 36 37 40 44 47 53 63 76 80 82 91 96 99 99 99 98 96 94 93 97 98 97 94 90 88 86 88 91 91
9 12 14 14 15 17 18 18 17 20 27 33 36 36 36 39 40 42 46 49 54 59 63 66 68 75 79 82 84 86 89 90 90 90 92 91 90 90 92 93 94 93 93 92
14 14 16 18 18 17 16 18 22 26 28 31 36 40 41 44 46 47 50 53 55 58 61 63 66 69 71 74 77 78 79 84 86 88 88 89 90 88 86 89 87 88 90 87
16 19 18 15 15 17 20 24 27 29 30 32 34 37 39 40 46 47 49 55 59 64 66 70 71 75 78 80 83 86 87 86 86 86 86 86 87 90 88 88 91 91 89 83
16 13 14 17 23 28 30 32 33 35 36 37 38 39 41 43 44 45 48 50 52 52 55 56 57 60 62 64 68 72 77 82 84 87 90 91 91 92 92 88 89 89 90 90
14 19 26 28 28 29 30 31 34 36 38 39 42 43 44 48 48 51 53 55 60 62 64 67 70 73 74 76 75 75 75 76 80 84 88 92 93 93 93 91 87 89 87 89
23 23 24 26 29 32 36 40 44 45 47 51 55 57 63 64 72 76 81 84 85 85 86 86 86 89 92 89 87 89 91 92 93 94 89 88 88 90 92 97 94 94 94 96
Wind_Speed
39 40 40 42 44 45 46 50 50 52 52 57 60 64 65 69 69 73 75 76 77 80 84 88 87 85 79 74 70 68 64 65 62 55 51 50 48 46 46 47 46 48 51 52
40 42 44 46 47 46 49 50 53 55 57 61 64 68 72 72 76 77 78 80 82 85 88 88 88 81 71 66 62 58 55 58 55 51 48 46 45 43 41 38 40 43 45 49
41 44 44 46 47 48 50 53 56 59 62 65 69 74 75 77 81 82 82 84 87 89 89 86 81 74 66 64 59 53 53 55 53 51 46 41 42 43 42 40 41 40 42 41
44 46 47 47 48 51 54 57 61 64 68 72 76 79 80 82 83 84 85 88 87 88 88 76 71 68 66 61 54 51 53 55 50 45 41 40 41 40 42 46 44 45 42 37
47 48 48 51 54 56 60 65 67 71 72 76 79 83 84 84 84 86 87 89 89 82 76 72 75 67 62 58 53 52 50 49 44 44 35 38 37 41 48 43 41 46 39 37
52 52 55 58 60 62 65 69 72 74 77 80 84 83 83 84 86 88 88 86 82 77 71 69 65 61 58 57 53 50 44 40 40 44 42 43 47 40 36 41 44 39 40 35
54 56 59 62 64 67 71 73 76 78 82 83 84 83 84 86 87 90 85 78 78 75 71 68 64 58 54 52 48 45 40 34 38 43 42 50 49 30 31 31 34 39 38 31
55 58 63 66 69 72 76 77 78 84 83 86 83 85 88 89 88 84 82 79 73 70 65 61 56 50 46 41 38 33 37 40 40 43 46 47 26 25 29 32 36 34 27 25
58 61 65 68 72 76 78 80 83 85 85 84 86 88 90 88 85 84 78 72 68 62 56 51 47 43 39 35 34 29 28 30 34 38 30 27 29 33 28 31 28 27 22 22
65 68 69 72 75 78 82 82 84 82 84 86 89 90 89 88 85 83 76 66 57 52 47 43 39 38 36 34 28 22 22 22 22 22 25 30 28 28 32 32 28 26 27 30
68 69 71 73 78 81 82 80 81 83 86 89 88 87 84 82 78 69 61 54 49 44 41 38 36 34 30 25 21 18 19 24 20 24 26 30 31 32 33 31 30 32 32 32
67 68 71 76 80 76 78 80 83 85 86 87 86 83 79 71 61 54 49 45 43 40 36 32 30 29 28 22 19 19 19 21 22 25 28 28 32 33 32 33 34 37 37 32
66 72 76 77 75 78 79 81 84 85 85 84 81 73 63 55 49 46 42 42 40 36 31 25 25 26 25 24 21 18 17 20 20 25 25 28 30 32 34 36 37 32 24 22
72 71 71 75 77 78 81 81 82 83 80 75 66 58 48 45 44 42 40 37 33 28 25 22 21 24 29 31 24 25 22 24 29 31 32 32 34 36 37 35 29 28 28 27
68 72 75 77 78 79 80 81 78 74 67 60 49 44 43 42 40 38 34 30 26 23 21 20 19 21 21 22 22 22 25 27 29 30 31 33 35 36 32 27 28 29 30 31
72 75 76 77 78 79 77 73 66 59 50 42 40 40 38 37 35 33 29 26 22 19 19 22 24 26 27 27 26 26 28 30 31 33 36 37 35 31 29 28 28 30 32 32
73 76 77 78 76 71 64 58 49 40 39 39 37 36 35 33 31 27 24 22 19 18 18 19 22 24 25 26 27 25 27 30 32 32 31 31 32 33 31 31 32 31 29 29
74 75 73 70 65 57 47 41 37 37 37 36 35 33 30 29 25 23 20 19 19 19 20 21 23 26 26 26 27 30 32 31 33 34 34 35 34 33 33 31 30 31 31 31
70 66 61 54 45 39 36 34 35 35 34 33 31 29 24 22 21 20 18 18 18 19 20 23 26 27 27 27 29 30 33 35 34 34 35 33 29 27 27 29 29 28 31 32
59 51 42 37 33 32 33 34 33 32 30 27 24 21 19 18 18 18 18 17 18 19 20 22 25 26 27 30 33 34 31 31 33 33 31 27 27 26 27 28 29 29 30 31
39 33 30 30 31 31 31 30 28 26 22 20 18 17 17 16 15 15 15 15 16 17 18 21 23 25 27 28 28 29 29 29 29 28 28 29 30 32 32 32 32 31 31 31
27 26 28 27 28 28 25 23 19 17 16 16 16 15 14 14 13 13 13 13 13 14 15 16 17 18 20 22 23 23 24 25 26 26 28 28 29 28 28 28 28 28 28 28
24 25 24 24 23 19 16 14 14 14 14 14 15 15 14 14 13 13 13 13 12 13 13 14 15 16 17 18 19 20 19 20 21 23 23 24 25 26 26 26 27 27 28 29
23 20 18 15 12 12 12 13 13 14 15 17 16 15 15 15 15 15 14 14 14 14 15 15 16 16 17 18 18 19 20 20 20 20 21 21 21 23 24 23 24 25 27 28
14 10 9 11 14 14 15 15 17 18 18 17 18 18 18 19 18 18 17 17 18 18 18 18 18 18 18 18 19 19 19 19 20 20 20 21 21 21 23 23 22 23 24 25
13 11 16 16 17 18 19 20 21 20 20 22 22 22 22 23 22 23 23 22 22 21 21 21 21 21 20 20 19 19 19 19 19 19 19 19 19 20 20 22 21 22 22 23
16 19 21 25 25 25 25 25 25 24 27 29 27 27 28 27 28 26 26 26 26 26 25 24 23 23 23 23 23 21 21 20 20 20 20 20 20 20 20 20 22 22 21 22
Wind_Direction
293 291 289 291 294 292 291 295 296 298 301 303 306 308 309 309 309 308 310 311 312 312 312 311 311 311 307 303 298 292 290 287 285 285 286 285 284 284 284 280 281 280 281 280
288 289 287 288 289 290 293 295 296 300 302 304 306 308 308 308 309 310 312 312 313 313 312 311 311 310 305 298 293 290 289 286 287 288 287 284 282 281 280 280 278 279 286 286
289 289 287 287 289 293 295 296 299 301 303 305 306 308 308 309 310 312 312 313 313 312 312 311 310 307 301 295 293 290 286 284 285 286 285 279 277 276 280 285 288 295 293 294
289 290 289 290 292 294 297 299 302 305 306 307 308 308 308 310 311 311 313 313 313 312 311 309 306 301 298 296 294 289 284 284 285 285 282 279 280 279 285 289 291 294 299 295
289 291 292 293 296 298 300 302 304 306 307 307 306 307 309 309 311 313 313 313 312 310 308 304 304 299 297 293 290 285 284 282 281 279 279 288 286 279 273 280 280 295 295 295
285 289 293 295 298 300 302 304 304 305 306 305 306 308 308 311 312 313 312 311 310 308 305 301 298 295 293 290 288 287 283 275 277 274 284 290 287 291 270 277 286 289 293 287
286 289 293 294 296 299 301 301 302 303 304 304 306 308 310 312 312 312 311 309 308 307 302 299 296 294 290 287 287 281 278 276 284 277 268 275 295 278 277 278 285 289 287 278
290 292 293 294 295 296 297 300 300 301 302 304 308 310 311 312 311 311 310 309 305 302 300 297 296 295 291 290 285 275 271 252 256 265 274 282 274 272 276 285 290 289 279 273
289 290 292 292 293 293 296 297 299 302 305 307 309 309 311 311 311 309 307 305 303 300 299 298 297 296 293 290 288 278 265 261 257 262 266 267 261 275 275 286 286 283 279 277
286 288 290 291 291 293 295 298 301 304 308 309 309 310 310 311 309 307 306 303 300 299 298 295 292 288 288 288 284 274 249 244 251 260 260 263 267 274 279 284 291 293 288 274
285 289 291 291 292 292 297 301 305 307 308 309 310 310 310 308 306 304 303 300 299 298 295 292 288 286 284 281 275 268 235 233 245 258 262 268 271 271 281 286 287 292 296 287
286 289 290 290 292 299 303 306 307 308 309 309 310 308 306 305 303 302 300 299 297 295 292 287 281 279 281 278 271 261 258 247 260 260 263 262 268 273 275 281 287 293 293 282
288 289 290 294 300 303 306 306 308 308 308 308 306 306 305 304 301 301 298 296 295 293 289 282 269 261 266 268 275 264 275 261 255 248 249 262 273 279 284 288 289 287 280 277
288 293 298 301 304 306 307 307 308 307 306 305 306 305 305 301 300 299 298 296 294 289 282 274 260 252 256 265 272 251 253 259 263 272 278 278 281 285 289 287 280 274 278 279
299 300 303 304 306 306 307 307 306 305 305 305 306 306 301 301 300 299 296 293 289 282 276 267 258 266 275 276 277 272 268 269 271 271 274 281 288 291 284 274 270 273 276 279
302 303 304 305 307 307 306 305 304 304 304 305 305 302 301 301 301 298 295 291 286 277 265 256 259 263 269 272 272 271 270 271 272 278 283 288 289 286 279 272 276 279 279 279
303 304 306 306 307 305 305 305 306 307 308 305 304 303 303 302 299 296 293 290 283 273 264 257 262 266 267 268 270 269 269 274 280 282 284 286 285 282 279 277 278 276 276 281
305 306 307 306 306 307 308 307 308 305 305 305 305 304 303 300 297 294 295 290 285 277 270 264 264 269 272 270 271 273 277 278 279 283 285 287 287 280 274 276 276 276 275 279
307 306 305 306 307 306 306 305 305 306 306 306 306 306 305 304 300 298 294 290 283 282 275 270 270 273 275 274 274 277 283 286 283 284 287 290 287 283 279 276 278 277 280 282
304 305 305 305 303 304 305 307 307 307 309 311 312 313 312 312 308 304 299 295 287 284 281 279 275 277 278 277 279 284 285 283 284 286 287 283 282 281 281 280 280 280 281 282
305 305 305 304 305 308 309 307 310 313 317 322 324 326 325 324 320 314 310 305 299 293 289 284 287 285 284 284 286 286 285 284 284 284 282 281 280 281 282 282 280 280 279 279
308 307 306 308 312 309 311 317 325 331 336 338 338 339 340 339 336 331 329 325 320 314 309 303 302 298 296 295 294 293 291 290 289 288 286 286 286 285 284 284 284 283 280 279
311 313 317 317 315 319 335 345 351 352 354 355 355 356 354 351 353 352 351 348 342 336 332 328 324 319 316 312 310 308 306 302 300 298 296 294 292 291 289 287 286 283 281 279
324 321 314 322 352 8 11 11 12 15 17 16 11 8 6 8 6 4 359 357 353 347 342 337 332 328 324 321 318 316 315 314 311 308 306 305 302 300 297 295 290 287 284 282
323 346 19 37 40 40 39 38 38 36 33 32 32 32 30 30 27 24 21 18 11 7 1 356 352 348 342 338 334 330 327 323 319 317 313 310 307 304 302 302 299 296 293 291
38 53 62 61 57 53 50 46 45 44 44 45 43 40 41 39 36 33 31 28 24 20 16 12 8 6 3 359 355 350 345 341 336 333 330 324 321 318 315 311 310 304 299 295
71 74 71 64 58 57 56 56 57 56 56 54 50 50 50 48 45 42 38 35 32 30 27 25 24 20 15 12 11 7 1 356 351 346 341 337 334 330 324 319 316 314 310 305